RH
46 45 41 39 39 36 33 33 34 34 34 34 34 35 37 40 41 42 44 43 45 51 54 56 62 66 68 70 73 77 77 73 69 66 67 70 72 75 76 76 76 75
47 45 43 42 41 37 33 34 35 35 36 36 34 35 37 39 41 42 43 42 47 54 57 62 68 70 71 74 76 77 77 72 68 69 71 73 75 77 77 77 76 74
48 45 44 44 43 39 35 35 35 36 38 38 36 36 39 41 43 44 43 43 51 59 62 66 71 73 74 76 78 78 76 73 71 72 75 76 76 76 75 74 74 74
51 48 46 46 45 41 38 38 39 40 40 39 38 39 41 43 45 45 45 49 54 57 62 68 71 72 75 77 79 81 78 75 74 75 74 74 74 73 73 73 74 75
53 50 48 48 46 43 41 41 43 44 42 41 42 43 43 45 46 45 46 51 55 57 62 68 69 71 74 77 79 81 80 76 75 74 73 73 74 73 72 73 76 78
55 53 51 49 45 44 44 44 46 47 44 42 44 46 46 47 47 45 46 52 57 60 65 69 70 71 73 76 79 80 79 78 75 72 71 72 73 73 74 77 81 83
55 54 53 50 46 45 45 46 48 48 45 44 46 49 50 51 50 50 51 54 57 61 65 67 69 71 72 74 75 76 76 76 74 71 70 71 74 75 78 82 83 84
55 54 54 52 49 47 47 48 50 49 48 49 49 51 53 52 52 54 53 54 56 60 64 67 70 71 71 71 72 73 73 74 74 73 70 71 75 78 81 84 86 87
54 54 55 55 53 50 48 51 53 51 51 52 51 53 55 54 55 55 53 54 57 59 63 67 69 69 70 71 70 71 72 73 75 74 72 72 76 81 84 86 87 87
55 54 56 57 57 54 51 54 56 54 54 54 53 55 57 56 57 56 55 56 57 59 64 66 66 68 69 69 69 71 73 73 75 75 73 73 77 85 89 88 87 90
56 57 58 58 58 57 56 57 57 55 56 56 56 58 58 58 60 58 56 58 58 60 63 64 64 66 68 69 69 70 71 73 75 74 72 74 79 88 91 90 91 96
57 58 59 59 60 60 60 59 57 55 57 58 58 58 58 59 61 60 58 58 59 61 62 62 64 65 66 68 69 70 73 73 73 73 75 77 81 86 91 93 96 100
58 57 58 60 61 61 61 61 57 54 56 59 58 57 57 58 60 61 61 60 60 62 62 61 62 63 65 67 69 71 73 72 75 77 77 78 83 90 96 97 96 96
58 57 58 61 61 60 61 59 56 53 55 57 58 57 56 56 57 59 61 62 63 62 61 60 62 64 65 67 69 72 74 76 79 77 75 80 91 97 96 93 91 88
60 60 60 61 62 62 61 59 56 53 54 56 59 58 55 55 56 57 59 62 63 62 61 61 63 64 66 69 71 72 75 77 77 76 81 90 95 94 90 89 88 80
62 62 61 62 63 63 62 61 57 54 54 56 59 58 55 54 56 57 60 61 61 61 61 62 64 66 69 74 77 76 75 76 78 85 94 95 92 89 89 89 84 71
64 64 63 63 64 64 64 62 59 57 56 56 57 57 55 54 55 57 59 60 60 61 61 63 64 66 72 79 82 81 82 83 86 92 97 94 91 89 89 88 78 64
66 65 65 65 65 65 65 62 60 60 60 58 56 55 55 55 56 57 58 59 60 60 61 63 64 67 75 81 82 83 87 90 91 94 96 92 89 88 88 86 75 64
66 66 67 68 67 66 65 63 62 64 64 60 57 56 55 55 57 58 59 59 60 60 61 62 63 68 76 80 81 85 91 92 92 95 95 89 87 88 87 82 73 67
67 67 68 69 68 67 65 64 65 67 65 61 60 58 56 55 57 59 60 59 60 61 62 62 63 67 73 78 81 85 90 92 93 94 91 86 87 89 86 80 74 69
67 67 69 70 70 69 68 66 68 69 67 64 62 60 57 55 56 59 60 59 59 61 63 64 64 68 74 77 80 85 89 92 93 91 87 85 87 87 85 81 74 68
67 68 69 70 72 73 71 70 71 71 69 67 65 63 61 57 56 57 57 57 59 61 63 64 65 70 76 77 79 86 91 93 93 89 85 86 88 87 85 81 73 69
68 68 69 70 73 75 75 76 78 74 69 67 67 66 62 57 55 55 55 55 58 60 63 65 65 69 76 79 81 88 93 93 90 85 83 86 88 88 87 82 75 72
68 68 68 71 74 76 77 80 81 78 73 69 67 65 61 57 54 52 51 53 56 59 63 65 63 65 73 78 81 88 94 91 87 86 86 87 90 90 87 84 81 80
68 68 68 71 74 77 78 80 80 79 76 72 69 65 60 56 54 50 50 53 56 59 63 65 63 62 69 76 80 88 93 89 86 89 87 87 92 92 90 90 89 85
68 69 69 71 75 77 78 79 79 79 77 73 70 66 60 56 53 52 52 54 56 59 62 66 65 62 65 74 81 88 92 88 86 89 89 92 95 92 93 97 93 88
Wind_Speed
28 28 28 27 26 26 25 25 26 25 25 24 22 21 20 19 18 18 17 14 13 14 14 13 13 13 12 12 11 11 11 11 12 13 13 14 14 14 15 16 16 17
28 28 27 27 26 25 26 26 26 25 25 24 22 21 20 20 19 18 17 15 14 14 14 13 14 14 13 12 12 11 11 12 13 13 13 14 14 15 15 16 17 17
28 28 27 27 27 26 26 26 25 25 25 24 22 21 20 20 19 18 16 15 15 15 14 14 14 14 13 13 12 12 12 13 13 13 13 14 14 15 16 16 16 17
29 28 27 27 26 26 26 26 26 25 24 24 23 22 21 20 19 17 16 15 16 15 14 14 14 14 14 13 13 13 13 13 14 14 14 14 14 15 16 15 16 17
29 28 27 26 25 25 26 26 27 26 25 24 23 22 22 20 19 18 17 17 17 15 14 15 15 15 15 14 14 14 14 14 15 14 15 15 14 15 15 15 16 17
28 28 28 27 25 26 27 27 27 26 26 24 23 22 22 21 20 19 18 18 17 15 15 16 16 15 15 15 14 15 14 15 15 14 15 15 15 15 15 16 17 18
29 29 28 27 26 26 27 27 26 26 25 25 23 23 22 21 20 19 18 18 17 17 16 16 16 16 15 15 15 15 15 16 16 16 15 15 15 16 15 16 17 19
29 29 28 27 27 27 27 26 26 26 25 25 24 24 23 22 21 20 20 19 18 18 17 17 17 16 16 16 16 16 16 16 16 16 16 16 16 16 16 16 18 20
29 29 29 28 28 28 28 27 26 26 26 26 26 24 23 22 21 21 20 19 19 18 18 17 17 17 16 16 16 17 17 17 17 17 17 17 16 16 16 17 19 21
29 29 29 29 30 29 29 28 27 27 27 27 26 25 24 23 22 21 20 20 20 19 18 18 18 17 17 17 17 17 17 18 18 18 18 18 18 18 18 19 21 22
28 29 30 31 30 29 28 27 27 27 27 27 26 26 24 23 22 22 21 20 20 20 19 19 18 18 18 18 18 17 17 18 18 18 19 19 19 20 20 22 24 24
29 29 30 30 29 28 27 27 28 28 28 28 28 27 25 24 23 22 22 21 21 20 19 19 19 18 18 18 18 17 17 17 17 18 19 20 21 21 22 24 25 25
29 30 29 29 28 27 27 29 29 29 28 29 29 28 27 26 25 23 22 21 21 20 19 19 19 18 19 18 18 17 17 17 17 18 19 19 20 21 22 24 24 23
29 29 28 29 29 28 28 29 29 30 30 29 29 29 28 27 26 25 23 21 20 20 19 19 19 19 19 19 18 17 16 17 17 17 17 18 19 20 22 23 23 22
27 28 27 27 28 29 29 28 29 30 30 29 29 29 28 27 26 25 23 22 21 20 19 19 19 20 19 19 18 17 17 17 17 15 15 16 17 19 22 21 21 22
26 27 26 26 27 28 28 28 29 30 29 28 28 27 27 26 25 24 24 23 22 21 20 20 20 20 19 17 17 17 17 16 14 13 14 15 18 20 21 21 21 22
25 26 26 26 26 26 27 28 28 28 27 27 27 27 26 26 25 25 24 23 23 22 21 21 22 21 19 17 16 16 16 15 13 13 14 16 18 20 20 20 22 21
25 26 27 27 26 26 26 26 26 26 27 26 27 27 26 25 25 25 24 23 23 22 22 22 22 20 18 17 17 16 16 15 14 14 14 16 18 19 19 21 22 22
25 26 27 27 27 27 26 25 25 26 27 27 26 25 24 24 24 24 24 23 23 23 23 23 22 20 18 17 17 16 15 15 14 14 15 16 17 18 20 21 22 22
24 25 26 28 28 27 26 26 26 27 27 27 26 24 24 24 24 24 24 24 24 23 22 22 22 20 18 17 17 16 15 14 14 15 15 16 17 18 19 20 21 21
24 25 26 27 27 27 27 28 28 27 26 25 25 25 26 25 25 25 24 23 23 23 22 22 22 20 18 17 17 16 15 14 14 14 15 16 17 17 18 19 20 20
24 25 25 26 26 26 27 28 27 26 25 24 24 24 25 25 25 24 24 24 24 23 22 22 22 19 18 17 17 16 15 14 13 13 14 15 16 16 17 18 19 19
24 24 25 25 25 25 26 27 26 26 25 25 25 23 23 25 25 23 24 25 24 24 23 22 21 20 18 17 17 16 15 14 14 13 13 14 15 15 16 17 18 17
24 25 25 25 25 26 26 26 26 26 25 26 26 24 22 24 25 23 22 24 24 25 24 23 21 20 18 17 18 17 15 15 13 12 13 13 13 14 15 16 16 16
24 25 25 25 26 27 27 26 25 25 25 25 25 24 22 22 23 22 21 22 23 24 23 22 22 20 18 17 18 16 16 15 13 12 13 12 12 14 15 15 15 15
23 25 26 26 26 27 27 26 25 24 24 24 25 25 23 22 22 23 22 21 22 22 21 21 22 20 18 18 17 17 16 15 14 13 13 11 11 12 14 15 16 16
Wind_Direction
202 198 195 194 194 194 194 194 194 194 195 195 195 198 200 201 203 209 216 221 219 218 223 225 225 228 230 231 234 237 240 241 245 247 248 251 254 259 263 265 268 271
204 200 197 195 194 195 196 196 196 195 195 195 195 196 198 201 207 213 218 219 218 219 223 222 222 226 226 226 229 234 239 241 244 246 248 251 254 259 263 266 270 271
204 202 199 197 195 195 195 196 197 197 196 195 195 196 199 204 209 214 218 217 216 217 219 221 222 223 224 225 225 230 235 239 242 244 248 252 255 260 264 267 271 272
204 204 202 200 198 196 195 194 195 196 195 194 195 196 199 204 208 211 214 214 214 214 215 218 220 220 222 223 225 228 232 237 241 245 250 255 257 261 265 269 273 275
205 205 204 201 199 196 194 194 195 195 193 193 195 197 200 204 208 209 210 212 215 215 213 215 218 220 220 221 225 228 231 236 240 244 249 253 256 260 267 272 274 277
206 205 205 203 199 197 196 196 197 196 194 193 195 198 202 204 208 210 209 211 215 215 214 215 218 219 219 220 224 227 229 234 239 243 247 252 259 264 267 271 274 278
206 205 205 203 200 199 198 197 197 197 195 193 194 198 201 204 207 208 208 210 212 212 213 216 218 218 219 220 223 226 229 233 238 243 249 255 261 265 267 271 276 279
206 205 204 202 201 201 200 199 198 198 196 193 194 197 201 204 206 207 208 210 212 213 214 217 219 219 219 220 223 227 228 232 237 243 249 255 258 262 267 272 276 278
206 204 203 202 202 203 202 200 200 199 197 194 195 197 200 204 206 207 209 210 212 214 215 218 220 220 220 222 224 228 229 232 237 242 249 254 257 261 268 274 276 277
207 205 203 203 203 204 203 201 200 200 198 196 196 196 199 202 205 207 210 211 213 215 215 218 220 220 222 224 225 228 232 235 239 245 250 255 257 261 267 273 277 276
209 207 206 205 205 205 203 200 200 200 199 198 196 196 198 200 203 207 209 211 214 215 216 218 220 221 222 224 226 228 233 238 242 248 253 256 258 262 267 273 276 273
211 210 209 208 207 205 202 201 202 201 200 199 198 197 197 198 202 206 208 212 215 216 218 219 220 222 223 224 227 229 233 239 244 249 253 257 261 265 270 275 275 269
216 214 213 211 209 206 204 202 202 202 201 201 200 198 197 198 200 203 207 212 216 218 220 221 221 223 224 226 228 229 234 239 243 248 255 261 265 267 270 273 272 269
222 220 217 214 212 209 206 203 201 202 202 202 201 200 199 200 200 201 205 209 214 217 219 221 223 224 225 227 228 229 233 237 242 249 257 264 267 268 270 272 271 273
227 225 222 218 215 211 207 204 202 203 203 202 202 202 201 202 201 201 202 205 210 215 218 221 224 226 227 227 228 230 232 237 244 250 257 264 269 272 274 273 274 279
229 227 225 222 219 215 210 206 204 203 203 202 201 203 203 202 202 201 201 203 206 210 215 219 223 226 227 225 226 230 233 239 245 249 255 264 270 274 275 276 279 282
230 226 225 223 222 219 215 211 206 203 202 202 201 203 204 203 202 201 201 202 205 208 212 217 221 225 225 223 224 227 232 239 244 251 259 265 268 273 276 278 282 284
231 225 223 223 223 222 219 215 210 205 203 203 203 203 203 202 202 202 202 202 204 208 212 216 220 222 221 223 225 225 229 236 243 252 261 265 269 274 278 280 283 286
233 227 223 223 222 222 219 216 213 209 205 203 203 204 203 203 203 203 203 202 204 208 212 217 220 219 219 223 225 226 228 234 242 253 259 266 272 275 279 281 283 286
235 229 226 224 223 220 217 214 213 212 209 205 203 203 204 204 205 205 204 203 204 207 210 216 220 219 219 223 225 227 229 234 243 253 259 266 272 275 278 280 282 286
238 233 229 226 223 219 216 214 213 214 212 209 205 204 205 205 206 207 205 204 205 206 207 214 219 217 216 222 225 225 228 234 243 252 259 266 271 274 278 279 282 286
241 236 232 229 224 220 218 216 215 215 215 211 207 206 207 207 207 207 206 205 204 205 207 212 217 215 213 219 224 224 227 232 239 249 258 265 272 275 278 280 283 285
246 238 235 232 226 222 221 219 217 216 215 211 208 206 205 206 206 206 207 206 204 204 207 210 215 214 211 216 222 222 224 228 234 245 255 264 271 275 278 282 283 285
250 240 236 234 229 225 223 221 218 216 214 213 210 207 206 205 205 206 207 207 206 208 208 210 215 215 211 214 220 220 220 225 231 241 252 262 271 275 279 282 284 286
253 242 237 235 232 230 226 222 220 218 215 214 212 211 211 208 205 203 204 205 207 210 210 211 216 217 211 211 216 216 218 223 228 237 250 259 268 276 281 282 284 289
254 243 238 237 235 233 230 224 221 218 215 213 212 211 211 208 204 201 202 204 206 208 209 210 215 216 211 209 213 214 216 219 224 233 244 254 264 274 280 281 286 292